Simultaneous Nadir Overpasses (SNOs) Predictions

Prediction of SNOs between FY3D and AQUA Satellite Orbit:

Table of predicted SNOs for the next 14.0 days since TLE Epoch: 2/12/2022
Index Date (FY3D) Time (FY3D) Lat,Lon (FY3D) SZA (FY3D ) Date (AQUA) Time (AQUA) Lat,Lon (AQUA) SZA (AQUA ) Distance(km) Time Diff (sec)
1 02/13/2022 05:06:29 72.98, 99.47 86.39 02/13/2022 05:06:45 72.99, 99.41 86.39 2.19 16
2 02/13/2022 05:56:40 -71.26, -89.87 95.45 02/13/2022 05:55:38 -71.25, -89.84 95.45 1.02 62
3 02/15/2022 20:33:34 -72.88, 47.92 94.63 02/15/2022 20:33:39 -72.88, 47.89 94.63 1.30 5
4 02/15/2022 21:23:47 71.15,-141.44 83.54 02/15/2022 21:22:34 71.14,-141.40 83.54 1.76 73
5 02/18/2022 11:10:31 -74.54,-175.14 93.72 02/18/2022 11:11:42 -74.54,-175.11 93.75 1.21 71
6 02/18/2022 12:00:49 73.13, -4.39 84.72 02/18/2022 12:00:42 73.12, -4.32 84.71 2.53 7
7 02/21/2022 02:37:40 74.50, 133.20 85.29 02/21/2022 02:38:39 74.49, 133.28 85.26 2.61 59
8 02/21/2022 03:27:47 -72.64, -55.10 96.76 02/21/2022 03:27:29 -72.63, -55.09 96.76 0.28 18
9 02/23/2022 18:04:37 -73.98, 82.79 96.27 02/23/2022 18:05:25 -73.98, 82.74 96.27 1.41 48



Historial Predications of SNOs between FY3D and AQUA
